Time,TemperatureF,DewpointF,PressureIn,WindDirection,WindDirectionDegrees,WindSpeedMPH,WindSpeedGustMPH,Humidity,HourlyPrecipIn,Conditions,Clouds,dailyrainin,SoftwareType,DateUTC
2013-02-27 00:29:00,30.5,27.6,30.12,ENE,69,10.0,18.0,89,0.00,,---,0.00,VWS V14.00,2013-02-27 05:29:00,
2013-02-27 00:59:00,30.5,27.6,30.11,East,86,5.0,12.0,89,0.00,,---,0.00,VWS V14.00,2013-02-27 05:59:00,
2013-02-27 01:29:00,30.3,27.7,30.11,NE,49,8.0,11.0,90,0.00,,---,0.00,VWS V14.00,2013-02-27 06:29:00,
2013-02-27 01:59:00,30.4,27.8,30.11,ENE,72,5.0,11.0,90,0.00,,---,0.00,VWS V14.00,2013-02-27 06:59:00,
2013-02-27 02:29:00,30.4,27.8,30.10,East,89,6.0,8.0,90,0.00,,---,0.00,VWS V14.00,2013-02-27 07:29:00,
2013-02-27 02:59:00,30.0,27.7,30.08,NNE,32,6.0,10.0,91,0.00,,---,0.00,VWS V14.00,2013-02-27 07:59:00,
2013-02-27 03:29:00,29.7,27.1,30.07,NE,54,7.0,8.0,90,0.00,,---,0.00,VWS V14.00,2013-02-27 08:29:00,
2013-02-27 03:59:00,29.4,26.6,30.05,NE,55,7.0,10.0,89,0.00,,---,0.00,VWS V14.00,2013-02-27 08:59:00,
2013-02-27 04:29:00,29.3,26.2,30.04,ENE,62,5.0,15.0,88,0.00,,---,0.00,VWS V14.00,2013-02-27 09:29:00,
2013-02-27 04:59:00,29.2,25.8,30.04,NE,51,4.0,13.0,87,0.00,,---,0.00,VWS V14.00,2013-02-27 09:59:00,
2013-02-27 05:29:00,29.2,25.3,30.04,ESE,123,12.0,18.0,85,0.00,,---,0.00,VWS V14.00,2013-02-27 10:29:00,
2013-02-27 05:59:00,28.9,25.2,30.03,ENE,72,16.0,16.0,86,0.00,,---,0.00,VWS V14.00,2013-02-27 10:59:00,
2013-02-27 06:29:00,28.8,25.1,30.01,ENE,61,8.0,10.0,86,0.00,,---,0.00,VWS V14.00,2013-02-27 11:29:00,
2013-02-27 06:59:00,29.0,25.1,29.99,East,85,3.0,11.0,85,0.00,,---,0.00,VWS V14.00,2013-02-27 11:59:00,
2013-02-27 07:29:00,29.4,25.2,29.99,East,79,5.0,15.0,84,0.00,,---,0.00,VWS V14.00,2013-02-27 12:29:00,
2013-02-27 07:59:00,29.8,25.3,29.98,NE,43,5.0,13.0,83,0.00,,---,0.00,VWS V14.00,2013-02-27 12:59:00,
2013-02-27 08:29:00,30.2,25.4,29.98,ENE,78,10.0,11.0,82,0.00,,---,0.00,VWS V14.00,2013-02-27 13:29:00,
2013-02-27 08:59:00,30.7,25.6,29.98,East,83,7.0,15.0,81,0.00,,---,0.00,VWS V14.00,2013-02-27 13:59:00,
2013-02-27 09:29:00,31.0,25.9,29.96,NE,44,11.0,19.0,81,0.00,,---,0.00,VWS V14.00,2013-02-27 14:29:00,
2013-02-27 09:59:00,31.2,25.8,29.94,NE,51,11.0,18.0,80,0.00,,---,0.00,VWS V14.00,2013-02-27 14:59:00,
2013-02-27 10:29:00,31.5,26.0,29.93,ENE,69,11.0,21.0,80,0.00,,---,0.00,VWS V14.00,2013-02-27 15:29:00,
2013-02-27 10:59:00,31.7,25.9,29.93,WSW,252,4.0,16.0,79,0.00,,---,0.00,VWS V14.00,2013-02-27 15:59:00,
2013-02-27 11:29:00,32.1,26.0,29.92,ENE,76,5.0,13.0,78,0.00,,---,0.00,VWS V14.00,2013-02-27 16:29:00,
2013-02-27 11:59:00,33.4,26.3,29.91,ENE,78,9.0,12.0,75,0.00,,---,0.00,VWS V14.00,2013-02-27 16:59:00,
2013-02-27 12:29:00,33.6,25.9,29.90,NE,47,11.0,15.0,73,0.00,,---,0.00,VWS V14.00,2013-02-27 17:29:00,
2013-02-27 12:59:00,34.1,26.4,29.90,ENE,59,10.0,22.0,73,0.00,,---,0.00,VWS V14.00,2013-02-27 17:59:00,
2013-02-27 13:29:00,32.8,27.9,29.88,ENE,57,12.0,14.0,82,0.00,,---,0.00,VWS V14.00,2013-02-27 18:29:00,
2013-02-27 13:59:00,32.4,28.7,29.87,NE,54,11.0,14.0,86,0.00,,---,0.00,VWS V14.00,2013-02-27 18:59:00,
2013-02-27 14:29:00,32.9,28.6,29.86,East,92,3.0,10.0,84,0.00,,---,0.00,VWS V14.00,2013-02-27 19:29:00,
2013-02-27 14:59:00,33.6,28.1,29.85,East,92,8.0,14.0,80,0.00,,---,0.00,VWS V14.00,2013-02-27 19:59:00,
2013-02-27 15:29:00,31.9,29.6,29.84,ENE,76,9.0,9.0,91,0.00,,---,0.00,VWS V14.00,2013-02-27 20:29:00,
2013-02-27 15:59:00,31.3,29.5,29.83,NE,45,9.0,11.0,93,0.02,,---,0.02,VWS V14.00,2013-02-27 20:59:00,
2013-02-27 16:29:00,31.3,29.5,29.82,ENE,65,5.0,10.0,93,0.03,,---,0.03,VWS V14.00,2013-02-27 21:29:00,
2013-02-27 16:59:00,31.1,29.6,29.81,ENE,65,10.0,11.0,94,0.04,,---,0.04,VWS V14.00,2013-02-27 21:59:00,
2013-02-27 17:29:00,31.0,29.7,29.81,East,87,6.0,9.0,95,0.04,,---,0.06,VWS V14.00,2013-02-27 22:29:00,
2013-02-27 17:59:00,30.9,29.6,29.80,ENE,68,10.0,13.0,95,0.05,,---,0.08,VWS V14.00,2013-02-27 22:59:00,
2013-02-27 18:29:00,30.9,29.6,29.80,ENE,68,7.0,16.0,95,0.05,,---,0.09,VWS V14.00,2013-02-27 23:29:00,
2013-02-27 18:59:00,30.7,29.4,29.80,ENE,65,12.0,16.0,95,0.04,,---,0.09,VWS V14.00,2013-02-27 23:59:00,
2013-02-27 19:29:00,30.4,29.1,29.80,ENE,76,10.0,17.0,95,0.04,,---,0.12,VWS V14.00,2013-02-28 00:29:00,
2013-02-27 19:59:00,30.3,29.3,29.79,ESE,110,10.0,16.0,96,0.06,,---,0.14,VWS V14.00,2013-02-28 00:59:00,
2013-02-27 20:29:00,30.2,29.2,29.78,ENE,72,14.0,17.0,96,0.09,,---,0.18,VWS V14.00,2013-02-28 01:29:00,
2013-02-27 20:59:00,30.2,29.2,29.76,East,96,6.0,15.0,96,0.10,,---,0.22,VWS V14.00,2013-02-28 01:59:00,
2013-02-27 21:29:00,30.2,29.2,29.75,East,88,9.0,13.0,96,0.10,,---,0.24,VWS V14.00,2013-02-28 02:29:00,
2013-02-27 21:59:00,30.2,29.2,29.74,NE,37,15.0,16.0,96,0.09,,---,0.28,VWS V14.00,2013-02-28 02:59:00,
2013-02-27 22:29:00,30.2,29.2,29.73,East,88,8.0,15.0,96,0.08,,---,0.30,VWS V14.00,2013-02-28 03:29:00,
2013-02-27 22:59:00,30.0,29.0,29.72,NNE,26,10.0,10.0,96,0.09,,---,0.33,VWS V14.00,2013-02-28 03:59:00,
2013-02-27 23:29:00,29.9,28.9,29.71,ENE,65,8.0,18.0,96,0.09,,---,0.37,VWS V14.00,2013-02-28 04:29:00,
2013-02-27 23:59:00,29.7,28.7,29.69,East,89,9.0,15.0,96,0.10,,---,0.40,VWS V14.00,2013-02-28 04:59:00,